• în România
  • Lista ţărilor
  • Pe 7 zile
  • Temperatura apei
  • Hartă satelitară
  • Meteo pe hartă
  • Widget-uri
  • user-avatar
    Intrare

    Meteo pe oră la Oran

    Astăzi, 30 Martie, Joi

    Timp Temperatura Precipitaţii Vânt Presiune Umiditate
    00:00 +11°C° 0 mm 3 m/s 758 mmHg 71%
    01:00 +11°C° 0 mm 3 m/s 758 mmHg 70%
    02:00 +11°C° 0 mm 3 m/s 758 mmHg 69%
    03:00 +11°C° 0 mm 3 m/s 757 mmHg 69%
    04:00 +11°C° 0 mm 3 m/s 757 mmHg 68%
    05:00 +10°C° 0 mm 3 m/s 757 mmHg 67%
    06:00 +10°C° 0 mm 3 m/s 757 mmHg 65%
    07:00 +14°C° 0 mm 3 m/s 757 mmHg 55%
    08:00 +18°C° 0 mm 3 m/s 757 mmHg 44%
    09:00 +22°C° 0 mm 3 m/s 757 mmHg 33%
    10:00 +24°C° 0 mm 3 m/s 757 mmHg 30%
    11:00 +26°C° 0 mm 3 m/s 757 mmHg 27%
    12:00 +28°C° 0 mm 4 m/s 756 mmHg 25%
    13:00 +28°C° 0 mm 4 m/s 756 mmHg 26%
    14:00 +28°C° 0 mm 5 m/s 756 mmHg 27%
    15:00 +28°C° 0 mm 5 m/s 755 mmHg 28%
    16:00 +26°C° 0 mm 4 m/s 755 mmHg 37%
    17:00 +22°C° 0 mm 4 m/s 755 mmHg 45%
    18:00 +20°C° 0 mm 3 m/s 755 mmHg 53%
    19:00 +18°C° 0 mm 3 m/s 755 mmHg 60%
    20:00 +16°C° 0 mm 2 m/s 756 mmHg 67%
    21:00 +14°C° 0 mm 2 m/s 756 mmHg 74%
    22:00 +14°C° 0 mm 2 m/s 756 mmHg 75%
    23:00 +14°C° 0 mm 1 m/s 756 mmHg 76%

    Mâine, 31 Martie, Vineri

    Timp Temperatura Precipitaţii Vânt Presiune Umiditate
    00:00 +13°C° 0 mm 1 m/s 756 mmHg 77%
    01:00 +13°C° 0 mm 1 m/s 756 mmHg 77%
    02:00 +13°C° 0 mm 1 m/s 755 mmHg 77%
    03:00 +12°C° 0 mm 1 m/s 755 mmHg 77%
    04:00 +12°C° 0 mm 1 m/s 755 mmHg 76%
    05:00 +12°C° 0 mm 1 m/s 755 mmHg 75%
    06:00 +12°C° 0 mm 1 m/s 755 mmHg 73%
    07:00 +16°C° 0 mm 1 m/s 755 mmHg 63%
    08:00 +20°C° 0 mm 1 m/s 756 mmHg 53%
    09:00 +23°C° 0 mm 1 m/s 756 mmHg 43%
    10:00 +25°C° 0 mm 1 m/s 756 mmHg 40%
    11:00 +26°C° 0 mm 2 m/s 756 mmHg 37%
    12:00 +27°C° 0 mm 2 m/s 756 mmHg 35%
    13:00 +27°C° 0 mm 3 m/s 755 mmHg 34%
    14:00 +27°C° 0 mm 3 m/s 755 mmHg 34%
    15:00 +27°C° 0 mm 4 m/s 754 mmHg 34%
    16:00 +25°C° 0 mm 3 m/s 754 mmHg 41%
    17:00 +22°C° 0 mm 3 m/s 754 mmHg 47%
    18:00 +20°C° 0 mm 3 m/s 753 mmHg 54%
    19:00 +19°C° 0 mm 3 m/s 754 mmHg 55%
    20:00 +18°C° 0 mm 4 m/s 754 mmHg 57%
    21:00 +15°C° 0 mm 5 m/s 755 mmHg 58%
    22:00 +16°C° 0 mm 5 m/s 755 mmHg 54%
    23:00 +16°C° 0 mm 5 m/s 754 mmHg 49%

    Poimâine, 1 Aprilie, Sâmbătă

    Timp Temperatura Precipitaţii Vânt Presiune Umiditate
    00:00 +16°C° 0 mm 6 m/s 754 mmHg 44%
    01:00 +16°C° 0 mm 6 m/s 754 mmHg 49%
    02:00 +15°C° 0 mm 6 m/s 754 mmHg 53%
    03:00 +15°C° 0 mm 6 m/s 754 mmHg 57%
    04:00 +15°C° 0 mm 6 m/s 754 mmHg 62%
    05:00 +14°C° 0 mm 6 m/s 754 mmHg 66%
    06:00 +14°C° 0 mm 6 m/s 754 mmHg 71%
    07:00 +15°C° 0 mm 7 m/s 755 mmHg 65%
    08:00 +17°C° 0 mm 8 m/s 755 mmHg 59%
    09:00 +20°C° 0 mm 8 m/s 755 mmHg 53%
    10:00 +21°C° 0 mm 9 m/s 755 mmHg 49%
    11:00 +21°C° 0 mm 9 m/s 755 mmHg 45%
    12:00 +22°C° 0 mm 9 m/s 755 mmHg 41%
    13:00 +22°C° 0 mm 8 m/s 754 mmHg 40%
    14:00 +21°C° 0 mm 8 m/s 754 mmHg 38%
    15:00 +21°C° 0 mm 7 m/s 753 mmHg 37%
    16:00 +20°C° 0 mm 6 m/s 753 mmHg 42%
    17:00 +17°C° 0 mm 5 m/s 754 mmHg 47%
    18:00 +17°C° 0 mm 4 m/s 754 mmHg 53%
    19:00 +16°C° 0 mm 3 m/s 754 mmHg 55%
    20:00 +13°C° 0 mm 3 m/s 755 mmHg 58%
    21:00 +12°C° 0 mm 3 m/s 755 mmHg 61%
    22:00 +12°C° 0 mm 3 m/s 755 mmHg 56%
    23:00 +11°C° 0 mm 3 m/s 755 mmHg 51%

    2 Aprilie, Duminică

    Timp Temperatura Precipitaţii Vânt Presiune Umiditate
    00:00 +11°C° 0 mm 3 m/s 754 mmHg 46%
    01:00 +11°C° 0 mm 3 m/s 754 mmHg 45%
    02:00 +11°C° 0 mm 3 m/s 754 mmHg 45%
    03:00 +11°C° 0 mm 3 m/s 753 mmHg 44%
    04:00 +10°C° 0 mm 3 m/s 753 mmHg 47%
    05:00 +10°C° 0 mm 2 m/s 753 mmHg 51%
    06:00 +10°C° 0 mm 2 m/s 753 mmHg 54%
    07:00 +14°C° 0 mm 2 m/s 754 mmHg 50%
    08:00 +17°C° 0 mm 2 m/s 754 mmHg 46%
    09:00 +20°C° 0 mm 2 m/s 755 mmHg 42%
    10:00 +20°C° 0 mm 3 m/s 754 mmHg 40%
    11:00 +21°C° 0 mm 4 m/s 754 mmHg 37%
    12:00 +22°C° 0 mm 5 m/s 754 mmHg 35%
    13:00 +22°C° 0 mm 5 m/s 754 mmHg 33%
    14:00 +22°C° 0 mm 5 m/s 754 mmHg 32%
    15:00 +22°C° 0 mm 5 m/s 753 mmHg 30%
    16:00 +20°C° 0 mm 5 m/s 754 mmHg 36%
    17:00 +19°C° 0 mm 5 m/s 754 mmHg 43%
    18:00 +16°C° 0 mm 5 m/s 754 mmHg 49%
    19:00 +14°C° 0 mm 4 m/s 755 mmHg 58%
    20:00 +12°C° 0 mm 4 m/s 756 mmHg 67%
    21:00 +10°C° 0 mm 4 m/s 756 mmHg 76%
    22:00 +10°C° 0 mm 4 m/s 756 mmHg 78%
    23:00 +9°C° 0 mm 3 m/s 756 mmHg 80%

    3 Aprilie, Luni

    Timp Temperatura Precipitaţii Vânt Presiune Umiditate
    00:00 +8°C° 0 mm 3 m/s 756 mmHg 82%
    01:00 +8°C° 0 mm 3 m/s 756 mmHg 82%
    02:00 +8°C° 0 mm 3 m/s 756 mmHg 81%
    03:00 +8°C° 0 mm 3 m/s 756 mmHg 81%
    04:00 +8°C° 0 mm 3 m/s 756 mmHg 82%
    05:00 +8°C° 0 mm 3 m/s 756 mmHg 83%
    06:00 +8°C° 0 mm 3 m/s 756 mmHg 84%
    07:00 +11°C° 0 mm 4 m/s 757 mmHg 73%
    08:00 +14°C° 0 mm 4 m/s 757 mmHg 63%
    09:00 +18°C° 0 mm 4 m/s 757 mmHg 52%
    10:00 +19°C° 0 mm 5 m/s 757 mmHg 49%
    11:00 +21°C° 0 mm 6 m/s 757 mmHg 46%
    12:00 +22°C° 0 mm 6 m/s 757 mmHg 43%
    13:00 +22°C° 0 mm 7 m/s 756 mmHg 45%
    14:00 +21°C° 0 mm 7 m/s 756 mmHg 47%
    15:00 +21°C° 0 mm 8 m/s 756 mmHg 49%
    16:00 +20°C° 0 mm 8 m/s 756 mmHg 55%
    17:00 +18°C° 0 mm 7 m/s 756 mmHg 61%
    18:00 +16°C° 0 mm 7 m/s 756 mmHg 67%
    19:00 +15°C° 0 mm 7 m/s 756 mmHg 74%
    20:00 +13°C° 0 mm 6 m/s 757 mmHg 82%
    21:00 +12°C° 0 mm 5 m/s 757 mmHg 90%
    22:00 +12°C° 0 mm 5 m/s 757 mmHg 90%
    23:00 +10°C° 0 mm 5 m/s 757 mmHg 91%

    4 Aprilie, Marţi

    Timp Temperatura Precipitaţii Vânt Presiune Umiditate
    00:00 +11°C° 0 mm 4 m/s 757 mmHg 91%
    01:00 +11°C° 0 mm 4 m/s 756 mmHg 91%
    02:00 +10°C° 0 mm 4 m/s 756 mmHg 91%
    03:00 +10°C° 0 mm 4 m/s 756 mmHg 91%
    04:00 +10°C° 0 mm 4 m/s 756 mmHg 91%
    05:00 +10°C° 0 mm 4 m/s 756 mmHg 91%
    06:00 +10°C° 0 mm 4 m/s 756 mmHg 91%
    07:00 +12°C° 0 mm 4 m/s 756 mmHg 78%
    08:00 +15°C° 0 mm 5 m/s 757 mmHg 66%
    09:00 +19°C° 0 mm 5 m/s 757 mmHg 54%
    10:00 +21°C° 0 mm 5 m/s 756 mmHg 47%
    11:00 +22°C° 0 mm 6 m/s 756 mmHg 40%
    12:00 +24°C° 0 mm 7 m/s 756 mmHg 33%
    13:00 +24°C° 0 mm 7 m/s 756 mmHg 34%
    14:00 +24°C° 0 mm 7 m/s 755 mmHg 35%
    15:00 +24°C° 0 mm 8 m/s 755 mmHg 36%
    16:00 +22°C° 0 mm 8 m/s 755 mmHg 42%
    17:00 +20°C° 0 mm 7 m/s 755 mmHg 49%
    18:00 +18°C° 0 mm 7 m/s 755 mmHg 55%
    19:00 +16°C° 0 mm 7 m/s 755 mmHg 65%
    20:00 +14°C° 0 mm 6 m/s 756 mmHg 76%
    21:00 +11°C° 0 mm 6 m/s 756 mmHg 86%
    22:00 +10°C° 0 mm 5 m/s 756 mmHg 86%
    23:00 +10°C° 0 mm 5 m/s 756 mmHg 87%
    Arată mai mult